User: anonymous   Login
Location: Haieshausen
(51.8387°N, 9.9720°E)
Time: 23:09:10
(UTC+00:00)
Language:

Tsikada Rocket - Orbit

View from above orbital plane
View from above orbital plane
View from above satellite
View from above satellite

Ground track
Ground track

The orbit data is extracted from the following two-line orbital elements,

1 23466U 95002D   20272.49159395 -.00000065 +00000-0 -85092-4 0  9996
2 23466 082.9209 095.9264 0035899 098.2951 318.5490 13.74434686287773
Epoch (UTC): 28 September 2020 11:47:53
Eccentricity: 0.0035899
inclination: 82.9209°
perigee height: 957 km
apogee height: 1010 km
right ascension of ascending node: 95.9264°
argument of perigee: 98.2951°
revolutions per day: 13.74434686
mean anomaly at epoch: 318.5490°
orbit number at epoch: 28777

The dashed part of the orbit path shows where the satellite is in the earth's shadow,  

DLR